Everett, WA
on Thursday, January 3, 2013

Thursday
Previous Day Next Day
Daily Summary
 ActualAverageRecord
Temperature
Mean Temperature °F °F  
Max Temperature 44°F 43°F 54°F (1963)
Min Temperature 32°F 31°F 11°F (1959)
Degree Days
Heating Degree Days 27    
Moisture
Dew Point 23°F   
Average Humidity 59    
Maximum Humidity 93    
Minimum Humidity 40    
Precipitation
Precipitation 0.16 in in in ()
Wind
Wind Speed 6 mph   
Max Wind Speed 10 mph   
Max Gust Speed mph   
Visibility 8 miles   
Events Rain   
Averages and records for this station are not official NWS values.
Key: T is trace of precipitation, MM is missing value
Source: NWS Daily Summary
Seasonal Weather Averages
Time(PST)TemperatureDew PointHumidity Pressure Visibility Wind DirectionWind SpeedGust SpeedPrecipitationEvents Conditions
12:53 AM 35.1°F 17.1°F 48% 30.18 in 10.0 miles ESE 6.9 mph - N/A   Clear
1:53 AM 35.1°F 17.1°F 48% 30.19 in 10.0 miles ESE 3.5 mph - N/A   Clear
2:53 AM 35.1°F 17.1°F 48% 30.19 in 10.0 miles SE 5.8 mph - N/A   Clear
3:53 AM 35.1°F 17.1°F 48% 30.18 in 10.0 miles ESE 5.8 mph - N/A   Clear
4:53 AM 33.1°F 17.1°F 52% 30.16 in 10.0 miles ESE 5.8 mph - N/A   Clear
5:53 AM 33.1°F 17.1°F 52% 30.14 in 10.0 miles Calm Calm - N/A   Clear
6:53 AM 32.0°F 17.1°F 54% 30.13 in 10.0 miles ESE 5.8 mph - N/A   Clear
7:53 AM 33.1°F 18.0°F 54% 30.13 in 10.0 miles ESE 5.8 mph - N/A   Clear
8:53 AM 34.0°F 18.0°F 52% 30.14 in 10.0 miles ESE 6.9 mph - N/A   Clear
9:53 AM 37.0°F 18.0°F 46% 30.14 in 10.0 miles SSE 6.9 mph - N/A   Clear
10:53 AM 39.0°F 18.0°F 43% 30.14 in 10.0 miles SSE 9.2 mph - N/A   Clear
11:53 AM 41.0°F 19.9°F 43% 30.12 in 10.0 miles South 8.1 mph - N/A   Clear
12:53 PM 42.1°F 21.0°F 43% 30.11 in 10.0 miles South 9.2 mph - N/A   Clear
1:53 PM 44.1°F 21.0°F 40% 30.10 in 10.0 miles South 8.1 mph - N/A   Clear
2:53 PM 43.0°F 21.9°F 43% 30.11 in 10.0 miles South 8.1 mph - N/A   Clear
3:53 PM 42.1°F 23.0°F 47% 30.14 in 10.0 miles South 10.4 mph - N/A   Mostly Cloudy
4:53 PM 43.0°F 23.0°F 45% 30.13 in 10.0 miles Variable 4.6 mph - N/A   Mostly Cloudy
5:53 PM 41.0°F 19.9°F 43% 30.12 in 10.0 miles Variable 6.9 mph - N/A   Overcast
6:53 PM 39.9°F 21.9°F 49% 30.14 in 10.0 miles SSW 8.1 mph - N/A   Overcast
7:53 PM 37.0°F 28.9°F 73% 30.14 in 6.0 miles ESE 8.1 mph - 0.06 in Rain Light Rain
8:53 PM 34.0°F 30.0°F 85% 30.15 in 4.0 miles ESE 8.1 mph - 0.04 in Rain Light Rain
9:25 PM 33.8°F 30.2°F 87% 30.12 in 4.0 miles Variable 6.9 mph - 0.02 in Rain Light Rain
9:53 PM 34.0°F 30.9°F 89% 30.14 in 4.0 miles Variable 5.8 mph - 0.04 in Rain Light Rain
10:11 PM 33.8°F 32.0°F 93% 30.13 in 3.0 miles Variable 6.9 mph - 0.01 in   Overcast
10:53 PM 34.0°F 32.0°F 92% 30.16 in 4.0 miles Variable 5.8 mph - 0.01 in Rain Light Rain
11:38 PM 35.6°F 33.8°F 93% 30.14 in 3.0 miles SSE 10.4 mph - 0.01 in Rain Light Rain
11:53 PM 35.1°F 33.1°F 92% 30.16 in 2.5 miles SSE 10.4 mph - 0.01 in Rain Light Rain
Moon Phase
Jan. 03 Jan. 04 Jan. 11 Jan. 18 Jan. 26
Sunrise:07:58 AM (PST) Moon Rise:11:43 PM (PST)1/3
Sunset:04:29 PM (PST) Moon Set:10:42 AM (PST)1/3

Copyright © 2014 The Weather Underground, Inc.